This is the latest recevied weather packets stored in our database for station/object OE3MHU-13. If no packets are shown the sender has not sent any weather packets the latest 10 day(s).
| Time | Temp. | Humidity | Pressure | Rain* | Wind** | Luminosity | Snow |
|---|---|---|---|---|---|---|---|
| 1777837145 | 20° C | 45% | 1016.6 hPa | 0 mm | - | - | - |
| 1777835613 | 20.56° C | 46% | 1016.6 hPa | 0 mm | - | - | - |
| 1777835003 | 20.56° C | 46% | 1016.6 hPa | 0 mm | - | - | - |
| 1777833779 | 21.11° C | 44% | 1016.5 hPa | 0 mm | - | - | - |
| 1777833473 | 21.11° C | 43% | 1016.5 hPa | 0 mm | - | - | - |
| 1777833166 | 21.11° C | 43% | 1016.5 hPa | 0 mm | - | - | - |
| 1777832555 | 21.11° C | 43% | 1016.5 hPa | 0 mm | - | - | - |
| 1777832248 | 21.67° C | 43% | 1016.4 hPa | 0 mm | - | - | - |
| 1777831942 | 21.67° C | 42% | 1016.4 hPa | 0 mm | - | - | - |
| 1777831331 | 21.67° C | 42% | 1016.3 hPa | 0 mm | - | - | - |
| 1777831025 | 22.22° C | 41% | 1016.3 hPa | 0 mm | - | - | - |
| 1777828882 | 22.78° C | 39% | 1016 hPa | 0 mm | - | - | - |
| 1777828577 | 22.78° C | 39% | 1016.1 hPa | 0 mm | - | - | - |
| 1777827352 | 23.33° C | 38% | 1016.1 hPa | 0 mm | - | - | - |
| 1777821845 | 24.44° C | 37% | 1016.5 hPa | 0 mm | - | - | - |
| 1777821539 | 24.44° C | 37% | 1016.5 hPa | 0 mm | - | - | - |
| 1777821233 | 24.44° C | 37% | 1016.6 hPa | 0 mm | - | - | - |
| 1777818192 | 24.44° C | 37% | 1016.8 hPa | 0 mm | - | - | - |
| 1777816989 | 24.44° C | 36% | 1017 hPa | 0 mm | - | - | - |
| 1777816689 | 24.44° C | 37% | 1017 hPa | 0 mm | - | - | - |
| 1777815489 | 24.44° C | 37% | 1017.2 hPa | 0 mm | - | - | - |
| 1777814889 | 24.44° C | 37% | 1017.3 hPa | 0 mm | - | - | - |
| 1777814284 | 24.44° C | 39% | 1017.5 hPa | 0 mm | - | - | - |
| 1777813366 | 24.44° C | 39% | 1017.9 hPa | 0 mm | - | - | - |
| 1777811836 | 23.89° C | 39% | 1018.3 hPa | 0 mm | - | - | - |
* Rain latest hour (hover to see other rain measurements)
** Current wind speed in m/s (hover to see current wind gust speed)